Location: Toronto
(43.6667°N, 79.4167°W)
Time: 10:29:26
(UTC-04:00)

X-37B - Pass Details

Date: 21 June 2021
Orbit: 383 x 392 km, 45.0° (Epoch: 01 July)

Event Time Altitude Azimuth Distance (km) Brightness Sun altitude
Exits shadow 03:14:46 30° 284° (WNW) 727 1.8 -17.9°
Maximum altitude 03:16:12 89° 2° (N) 388 0.5 -17.7°
Drops below altitude 10° 03:19:22 10° 104° (ESE) 1,405 3.6 -17.5°
Sets 03:21:26 0° 104° (ESE) 2,259 4.7 -17.3°
